When you browse on this site, cookies collect data to enhance your experience and personalize the content and advertising you see.
Visit our Privacy Policy to learn more. By continuing to use the site, you agree to this use of cookies and data.
  • In Lithuania
  • List of Countries
  • For 7 days
  • Water Temperature
  • Weather Map
  • Weather Widgets
  • user-avatar
    Login

    Hourly Weather Djelfa

    Today, 28 May, Thursday

    Time Temperature Precipitation Wind Pressure Humidity
    00:00 +21°C° 0 mm 3 mps 669 mmHg 46%
    01:00 +20°C° 0 mm 3 mps 669 mmHg 48%
    02:00 +20°C° 0 mm 4 mps 669 mmHg 50%
    03:00 +19°C° 0 mm 5 mps 669 mmHg 52%
    04:00 +19°C° 0 mm 6 mps 669 mmHg 52%
    05:00 +18°C° 0 mm 7 mps 669 mmHg 53%
    06:00 +18°C° 0 mm 8 mps 669 mmHg 53%
    07:00 +20°C° 0 mm 8 mps 669 mmHg 49%
    08:00 +21°C° 0 mm 8 mps 670 mmHg 45%
    09:00 +22°C° 0 mm 9 mps 670 mmHg 41%
    10:00 +23°C° 0 mm 8 mps 670 mmHg 36%
    11:00 +26°C° 0 mm 7 mps 670 mmHg 32%
    12:00 +28°C° 0 mm 6 mps 670 mmHg 28%
    13:00 +28°C° 0.1 mm 6 mps 669 mmHg 28%
    14:00 +28°C° 0.1 mm 6 mps 669 mmHg 28%
    15:00 +28°C° 0.1 mm 5 mps 668 mmHg 27%
    16:00 +26°C° 0.3 mm 6 mps 668 mmHg 33%
    17:00 +24°C° 0.3 mm 6 mps 668 mmHg 38%
    18:00 +22°C° 0.3 mm 6 mps 667 mmHg 43%
    19:00 +22°C° 0.3 mm 5 mps 668 mmHg 48%
    20:00 +21°C° 0.3 mm 4 mps 668 mmHg 54%
    21:00 +20°C° 0.3 mm 4 mps 668 mmHg 59%
    22:00 +20°C° 0.2 mm 4 mps 668 mmHg 59%
    23:00 +19°C° 0.2 mm 4 mps 667 mmHg 59%

    Tomorrow, 29 May, Friday

    Time Temperature Precipitation Wind Pressure Humidity
    00:00 +19°C° 0.2 mm 5 mps 667 mmHg 58%
    01:00 +19°C° 0.3 mm 5 mps 667 mmHg 56%
    02:00 +19°C° 0.3 mm 6 mps 666 mmHg 53%
    03:00 +19°C° 0.3 mm 6 mps 666 mmHg 51%
    04:00 +19°C° 0.2 mm 6 mps 666 mmHg 49%
    05:00 +20°C° 0.2 mm 7 mps 666 mmHg 47%
    06:00 +20°C° 0.2 mm 7 mps 666 mmHg 45%
    07:00 +21°C° 0.5 mm 7 mps 666 mmHg 42%
    08:00 +22°C° 0.5 mm 8 mps 666 mmHg 39%
    09:00 +23°C° 0.5 mm 8 mps 666 mmHg 36%
    10:00 +26°C° 0.2 mm 7 mps 666 mmHg 33%
    11:00 +27°C° 0.2 mm 6 mps 666 mmHg 30%
    12:00 +28°C° 0.2 mm 5 mps 666 mmHg 27%
    13:00 +28°C° 0.2 mm 5 mps 665 mmHg 28%
    14:00 +28°C° 0.2 mm 5 mps 664 mmHg 28%
    15:00 +28°C° 0.2 mm 5 mps 664 mmHg 28%
    16:00 +27°C° 0.4 mm 4 mps 663 mmHg 30%
    17:00 +27°C° 0.4 mm 3 mps 663 mmHg 32%
    18:00 +26°C° 0.4 mm 2 mps 663 mmHg 34%
    19:00 +23°C° 0.5 mm 4 mps 663 mmHg 43%
    20:00 +21°C° 0.5 mm 6 mps 663 mmHg 53%
    21:00 +18°C° 0.5 mm 7 mps 663 mmHg 63%
    22:00 +19°C° 0.3 mm 6 mps 663 mmHg 63%
    23:00 +19°C° 0.3 mm 4 mps 663 mmHg 63%

    Day after tomorrow, 30 May, Saturday

    Time Temperature Precipitation Wind Pressure Humidity
    00:00 +19°C° 0.3 mm 2 mps 663 mmHg 63%
    01:00 +19°C° 0.1 mm 2 mps 662 mmHg 63%
    02:00 +19°C° 0.1 mm 2 mps 662 mmHg 64%
    03:00 +18°C° 0.1 mm 3 mps 662 mmHg 65%
    04:00 +19°C° 0 mm 3 mps 662 mmHg 67%
    05:00 +19°C° 0 mm 3 mps 662 mmHg 68%
    06:00 +19°C° 0 mm 3 mps 662 mmHg 70%
    07:00 +20°C° 0 mm 4 mps 663 mmHg 64%
    08:00 +21°C° 0 mm 4 mps 663 mmHg 57%
    09:00 +23°C° 0 mm 4 mps 663 mmHg 50%
    10:00 +25°C° 0 mm 4 mps 663 mmHg 45%
    11:00 +25°C° 0 mm 4 mps 664 mmHg 41%
    12:00 +26°C° 0 mm 4 mps 664 mmHg 36%
    13:00 +27°C° 0 mm 4 mps 664 mmHg 33%
    14:00 +27°C° 0 mm 4 mps 664 mmHg 31%
    15:00 +28°C° 0 mm 4 mps 663 mmHg 28%
    16:00 +27°C° 0 mm 5 mps 663 mmHg 27%
    17:00 +27°C° 0 mm 6 mps 663 mmHg 27%
    18:00 +26°C° 0 mm 6 mps 663 mmHg 26%
    19:00 +24°C° 0 mm 6 mps 663 mmHg 30%
    20:00 +23°C° 0 mm 6 mps 664 mmHg 34%
    21:00 +21°C° 0 mm 6 mps 664 mmHg 38%
    22:00 +21°C° 0 mm 5 mps 664 mmHg 38%
    23:00 +20°C° 0 mm 4 mps 664 mmHg 39%

    31 May, Sunday

    Time Temperature Precipitation Wind Pressure Humidity
    00:00 +20°C° 0 mm 2 mps 664 mmHg 40%
    01:00 +19°C° 0 mm 3 mps 663 mmHg 40%
    02:00 +19°C° 0 mm 3 mps 663 mmHg 40%
    03:00 +19°C° 0 mm 3 mps 663 mmHg 40%
    04:00 +19°C° 0 mm 3 mps 664 mmHg 43%
    05:00 +19°C° 0 mm 3 mps 664 mmHg 46%
    06:00 +19°C° 0 mm 3 mps 664 mmHg 49%
    07:00 +21°C° 0 mm 4 mps 665 mmHg 46%
    08:00 +22°C° 0 mm 5 mps 665 mmHg 42%
    09:00 +25°C° 0 mm 5 mps 666 mmHg 39%
    10:00 +26°C° 0 mm 5 mps 666 mmHg 37%
    11:00 +27°C° 0 mm 5 mps 666 mmHg 35%
    12:00 +28°C° 0 mm 5 mps 666 mmHg 33%
    13:00 +29°C° 0 mm 5 mps 665 mmHg 31%
    14:00 +30°C° 0 mm 4 mps 665 mmHg 28%
    15:00 +32°C° 0 mm 4 mps 665 mmHg 25%
    16:00 +30°C° 1.6 mm 4 mps 664 mmHg 31%
    17:00 +28°C° 1.6 mm 3 mps 664 mmHg 36%
    18:00 +27°C° 1.6 mm 3 mps 664 mmHg 41%
    19:00 +25°C° 0 mm 4 mps 664 mmHg 49%
    20:00 +23°C° 0 mm 5 mps 664 mmHg 56%
    21:00 +21°C° 0 mm 6 mps 665 mmHg 64%
    22:00 +21°C° 0 mm 5 mps 665 mmHg 65%
    23:00 +20°C° 0 mm 4 mps 665 mmHg 65%

    1 June, Monday

    Time Temperature Precipitation Wind Pressure Humidity
    00:00 +20°C° 0 mm 4 mps 665 mmHg 66%
    01:00 +20°C° 0 mm 3 mps 664 mmHg 62%
    02:00 +21°C° 0 mm 3 mps 664 mmHg 58%
    03:00 +21°C° 0 mm 2 mps 664 mmHg 55%
    04:00 +23°C° 0 mm 2 mps 664 mmHg 51%
    05:00 +22°C° 0 mm 3 mps 664 mmHg 47%
    06:00 +24°C° 0 mm 3 mps 665 mmHg 43%
    07:00 +26°C° 0 mm 4 mps 665 mmHg 36%
    08:00 +27°C° 0 mm 5 mps 666 mmHg 30%
    09:00 +29°C° 0 mm 6 mps 666 mmHg 24%
    10:00 +30°C° 0 mm 6 mps 666 mmHg 22%
    11:00 +32°C° 0 mm 7 mps 666 mmHg 20%
    12:00 +33°C° 0 mm 7 mps 666 mmHg 18%
    13:00 +33°C° 0 mm 8 mps 666 mmHg 17%
    14:00 +34°C° 0 mm 9 mps 665 mmHg 16%
    15:00 +34°C° 0 mm 10 mps 665 mmHg 14%
    16:00 +33°C° 0 mm 9 mps 665 mmHg 16%
    17:00 +32°C° 0 mm 8 mps 665 mmHg 17%
    18:00 +30°C° 0 mm 7 mps 665 mmHg 19%
    19:00 +29°C° 0 mm 6 mps 665 mmHg 23%
    20:00 +28°C° 0 mm 5 mps 665 mmHg 27%
    21:00 +26°C° 0 mm 3 mps 665 mmHg 32%
    22:00 +25°C° 0 mm 3 mps 665 mmHg 36%
    23:00 +25°C° 0 mm 2 mps 664 mmHg 40%

    2 June, Tuesday

    Time Temperature Precipitation Wind Pressure Humidity
    00:00 +24°C° 0 mm 1 mps 664 mmHg 45%
    01:00 +24°C° 0 mm 1 mps 663 mmHg 44%
    02:00 +23°C° 0 mm 1 mps 663 mmHg 43%
    03:00 +23°C° 0 mm 1 mps 662 mmHg 43%
    04:00 +24°C° 0 mm 1 mps 663 mmHg 41%
    05:00 +25°C° 0 mm 1 mps 663 mmHg 39%
    06:00 +25°C° 0 mm 1 mps 664 mmHg 38%
    07:00 +26°C° 0 mm 2 mps 664 mmHg 35%
    08:00 +27°C° 0 mm 3 mps 664 mmHg 32%
    09:00 +28°C° 0 mm 4 mps 665 mmHg 29%
    10:00 +29°C° 0 mm 5 mps 665 mmHg 27%
    11:00 +30°C° 0 mm 5 mps 665 mmHg 26%
    12:00 +33°C° 0 mm 6 mps 665 mmHg 24%
    13:00 +32°C° 0.1 mm 5 mps 664 mmHg 26%
    14:00 +30°C° 0.1 mm 5 mps 663 mmHg 29%
    15:00 +30°C° 0.1 mm 5 mps 662 mmHg 31%
    16:00 +28°C° 0.3 mm 5 mps 661 mmHg 36%
    17:00 +27°C° 0.3 mm 6 mps 661 mmHg 42%
    18:00 +26°C° 0.3 mm 6 mps 661 mmHg 47%
    19:00 +24°C° 0.2 mm 7 mps 661 mmHg 48%
    20:00 +23°C° 0.2 mm 8 mps 661 mmHg 48%
    21:00 +23°C° 0.2 mm 9 mps 662 mmHg 49%
    22:00 +22°C° 0.4 mm 7 mps 661 mmHg 52%
    23:00 +22°C° 0.4 mm 5 mps 661 mmHg 54%
    Show more